Location: Bambrugge
(50.9212°N, 3.9299°E)
Time: 11:21:18
(UTC+00:00)

Cosmos 968 Rocket - Pass Details

Date: 23 May 2024
Orbit: 738 x 769 km, 74.0° (Epoch: 14 June)

Event Time Altitude Azimuth Distance (km) Brightness Sun altitude
Exits shadow 02:02:13 15° 193° (SSW) 1,932 5.0 -12.0°
Maximum altitude 02:06:27 72° 111° (ESE) 783 3.6 -11.6°
Drops below altitude 10° 02:11:35 10° 28° (NNE) 2,273 7.5 -11.2°
Sets 02:13:58 0° 26° (NNE) 3,205 8.7 -10.9°
